| time (UTC) | temp F | wind direction | speed knots | gust knots | rain 1hr in | rain 24hr in | rain mn in | humidity % | barometer mb |
| 20260904180329 | 87 | 0.0 | 0.0 | 0.00 | 0.00 | 0.00 | 47 | 1016.4 | |
| 20260904175324 | 87 | 0.0 | 0.0 | 0.00 | 0.00 | 0.00 | 46 | 1016.4 | |
| 20260904174321 | 88 | 0.0 | 0.0 | 0.00 | 0.00 | 0.00 | 45 | 1016.5 | |
| 20260904172323 | 89 | 0.0 | 0.0 | 0.00 | 0.00 | 0.00 | 44 | 1016.2 | |
| 20260904171313 | 89 | 0.0 | 0.0 | 0.00 | 0.00 | 0.00 | 44 | 1016.4 | |
| 20260904170302 | 90 | 0.0 | 0.9 | 0.00 | 0.00 | 0.00 | 43 | 1016.2 | |
| 20260904165258 | 90 | 0.0 | 0.9 | 0.00 | 0.00 | 0.00 | 43 | 1016.6 | |
| 20260904163400 | 91 | 0.0 | 0.0 | 0.00 | 0.00 | 0.00 | 39 | 1016.6 | |
| 20260904162357 | 91 | 0.0 | 0.0 | 0.00 | 0.00 | 0.00 | 39 | 1016.4 | |
| 20260904161348 | 91 | 0.0 | 0.0 | 0.00 | 0.00 | 0.00 | 42 | 1016.7 | |
| 20260904160337 | 91 | 0.0 | 0.0 | 0.00 | 0.00 | 0.00 | 42 | 1016.5 | |
| 20260904155334 | 91 | 315 | 0.9 | 1.7 | 0.00 | 0.00 | 0.00 | 42 | 1016.7 |
| 20260904154327 | 92 | 0.0 | 0.0 | 0.00 | 0.00 | 0.00 | 41 | 1016.8 | |
| 20260904153324 | 92 | 315 | 0.0 | 0.9 | 0.00 | 0.00 | 0.00 | 41 | 1016.7 |
| 20260904152402 | 92 | 0.0 | 0.0 | 0.00 | 0.00 | 0.00 | 39 | 1016.8 | |
| 20260904150350 | 92 | 0.0 | 0.0 | 0.00 | 0.00 | 0.00 | 38 | 1017.0 | |
| 20260904145410 | 92 | 0.0 | 0.9 | 0.00 | 0.00 | 0.00 | 39 | 1017.0 | |
| 20260904144342 | 92 | 315 | 0.0 | 0.9 | 0.00 | 0.00 | 0.00 | 39 | 1017.2 |
| 20260904143339 | 92 | 0.0 | 0.9 | 0.00 | 0.00 | 0.00 | 40 | 1017.1 | |
| 20260904142335 | 90 | 315 | 2.6 | 5.2 | 0.00 | 0.00 | 0.00 | 43 | 1017.0 |
| 20260904141326 | 92 | 0.0 | 0.0 | 0.00 | 0.00 | 0.00 | 42 | 1017.1 | |
| 20260904131256 | 91 | 337 | 0.0 | 1.7 | 0.00 | 0.00 | 0.00 | 44 | 1017.7 |
| 20260904125437 | 91 | 315 | 0.0 | 1.7 | 0.00 | 0.00 | 0.00 | 44 | 1018.1 |
| 20260904124434 | 90 | 337 | 0.0 | 0.9 | 0.00 | 0.00 | 0.00 | 45 | 1017.9 |
| 20260904123430 | 89 | 165 | 2.6 | 5.2 | 0.00 | 0.00 | 0.00 | 46 | 1018.1 |
| 20260904122447 | 87 | 315 | 2.6 | 5.2 | 0.00 | 0.00 | 0.00 | 48 | 1018.1 |
| 20260904121423 | 91 | 157 | 0.9 | 2.6 | 0.00 | 0.00 | 0.00 | 44 | 1018.4 |
| 20260904120419 | 91 | 315 | 0.9 | 1.7 | 0.00 | 0.00 | 0.00 | 45 | 1018.4 |
| 20260904115415 | 91 | 0.0 | 0.0 | 0.00 | 0.00 | 0.00 | 45 | 1018.3 | |
| 20260904114413 | 88 | 112 | 0.0 | 1.7 | 0.00 | 0.00 | 0.00 | 48 | 1018.6 |
| 20260904113409 | 87 | 315 | 3.5 | 5.2 | 0.00 | 0.00 | 0.00 | 48 | 1018.9 |
| 20260904111902 | 88 | 315 | 1.7 | 3.5 | 0.00 | 0.00 | 0.00 | 46 | 1018.8 |
| 20260904110112 | 90 | 315 | 0.0 | 2.6 | 0.00 | 0.00 | 0.00 | 44 | 1019.0 |
| 20260904105109 | 86 | 337 | 0.0 | 1.7 | 0.00 | 0.00 | 0.00 | 50 | 1019.1 |
| 20260904104058 | 86 | 112 | 0.0 | 1.7 | 0.00 | 0.00 | 0.00 | 50 | 1018.8 |
| 20260904102701 | 86 | 0 | 0.9 | 3.5 | 0.00 | 0.00 | 0.00 | 50 | 1019.3 |
| 20260904101657 | 85 | 315 | 2.6 | 3.5 | 0.00 | 0.00 | 0.00 | 52 | 1019.3 |
| 20260904095658 | 87 | 90 | 0.9 | 2.6 | 0.00 | 0.00 | 0.00 | 49 | 1019.4 |
| 20260904094410 | 84 | 292 | 0.9 | 1.7 | 0.00 | 0.00 | 0.00 | 53 | 1019.5 |
| 20260904092912 | 86 | 292 | 0.9 | 1.7 | 0.00 | 0.00 | 0.00 | 52 | 1019.7 |
| 20260904091902 | 85 | 0.0 | 0.9 | 0.00 | 0.00 | 0.00 | 53 | 1019.5 | |
| 20260904090859 | 85 | 135 | 0.9 | 1.7 | 0.00 | 0.00 | 0.00 | 52 | 1019.7 |
| 20260904085530 | 83 | 0.0 | 0.0 | 0.00 | 0.00 | 0.00 | 55 | 1019.5 | |
| 20260904084525 | 83 | 112 | 0.0 | 1.7 | 0.00 | 0.00 | 0.00 | 55 | 1019.5 |
| 20260904083521 | 83 | 0.0 | 0.9 | 0.00 | 0.00 | 0.00 | 55 | 1019.6 | |
| 20260904082033 | 80 | 315 | 1.7 | 3.5 | 0.00 | 0.00 | 0.00 | 58 | 1019.6 |
| 20260904081030 | 81 | 292 | 0.9 | 1.7 | 0.00 | 0.00 | 0.00 | 58 | 1019.4 |
| 20260904080024 | 82 | 292 | 0.0 | 1.7 | 0.00 | 0.00 | 0.00 | 55 | 1019.5 |
| 20260904075042 | 80 | 315 | 2.6 | 3.5 | 0.00 | 0.00 | 0.00 | 58 | 1019.7 |
| 20260904074015 | 81 | 315 | 1.7 | 2.6 | 0.00 | 0.00 | 0.00 | 56 | 1019.4 |
| 20260904073012 | 80 | 292 | 1.7 | 1.7 | 0.00 | 0.00 | 0.00 | 58 | 1019.2 |
| 20260904072009 | 78 | 292 | 0.9 | 1.7 | 0.00 | 0.00 | 0.00 | 60 | 1019.3 |
| 20260904071005 | 78 | 315 | 1.7 | 1.7 | 0.00 | 0.00 | 0.00 | 61 | 1019.1 |
| 20260904070124 | 77 | 292 | 0.9 | 1.7 | 0.00 | 0.00 | 0.00 | 61 | 1019.1 |
| 20260904065501 | 77 | 292 | 1.7 | 2.6 | 0.00 | 0.00 | 0.00 | 61 | 1019.3 |
| 20260904064458 | 76 | 315 | 0.9 | 2.6 | 0.00 | 0.00 | 0.00 | 64 | 1018.9 |
| 20260904063049 | 75 | 315 | 0.9 | 1.7 | 0.00 | 0.00 | 0.00 | 65 | 1019.1 |
| 20260904062045 | 74 | 315 | 0.9 | 1.7 | 0.00 | 0.00 | 0.00 | 64 | 1018.8 |
| 20260904061040 | 75 | 0.0 | 0.0 | 0.00 | 0.00 | 0.00 | 64 | 1019.1 | |
| 20260904060057 | 72 | 90 | 0.0 | 1.7 | 0.00 | 0.00 | 0.00 | 68 | 1019.0 |
| 20260904055054 | 71 | 315 | 2.6 | 5.2 | 0.00 | 0.00 | 0.00 | 70 | 1018.9 |
| 20260904054024 | 70 | 337 | 0.0 | 1.7 | 0.00 | 0.00 | 0.00 | 72 | 1018.8 |
| 20260904053014 | 70 | 0.0 | 0.9 | 0.00 | 0.00 | 0.00 | 72 | 1018.6 | |
| 20260904052010 | 70 | 0.0 | 0.0 | 0.00 | 0.00 | 0.00 | 74 | 1018.7 | |
| 20260904051005 | 68 | 315 | 0.9 | 0.9 | 0.00 | 0.00 | 0.00 | 77 | 1018.6 |
| 20260904050002 | 68 | 315 | 0.9 | 1.7 | 0.00 | 0.00 | 0.00 | 76 | 1018.4 |
| 20260904045500 | 68 | 337 | 0.0 | 1.7 | 0.00 | 0.00 | 0.00 | 76 | 1018.6 |
| 20260904044457 | 69 | 0.0 | 0.0 | 0.00 | 0.00 | 0.00 | 75 | 1018.3 | |
| 20260904043136 | 68 | 315 | 0.9 | 1.7 | 0.00 | 0.00 | 0.00 | 76 | 1018.6 |
| 20260904042127 | 69 | 0.0 | 0.0 | 0.00 | 0.00 | 0.00 | 76 | 1018.4 | |
| 20260904041143 | 69 | 0.0 | 0.0 | 0.00 | 0.00 | 0.00 | 76 | 1018.3 | |
| 20260904040118 | 68 | 0.0 | 0.0 | 0.00 | 0.00 | 0.00 | 77 | 1018.5 | |
| 20260904035115 | 69 | 0.0 | 0.0 | 0.00 | 0.00 | 0.00 | 76 | 1018.6 | |
| 20260904034112 | 69 | 0.0 | 0.0 | 0.00 | 0.00 | 0.00 | 77 | 1018.3 | |
| 20260904033109 | 69 | 0.0 | 0.0 | 0.00 | 0.00 | 0.00 | 75 | 1018.5 | |
| 20260904032107 | 70 | 0.0 | 0.0 | 0.00 | 0.00 | 0.00 | 74 | 1018.7 | |
| 20260904031124 | 70 | 0.0 | 0.0 | 0.00 | 0.00 | 0.00 | 74 | 1018.6 | |
| 20260904030058 | 70 | 0.0 | 0.0 | 0.00 | 0.00 | 0.00 | 74 | 1018.5 | |
| 20260904025108 | 70 | 0.0 | 0.0 | 0.00 | 0.00 | 0.00 | 75 | 1018.4 | |
| 20260904024045 | 70 | 0.0 | 0.0 | 0.00 | 0.00 | 0.00 | 75 | 1018.4 | |
| 20260904023037 | 70 | 0.0 | 0.0 | 0.00 | 0.00 | 0.00 | 74 | 1018.4 | |
| 20260904022025 | 70 | 0.0 | 0.0 | 0.00 | 0.00 | 0.00 | 74 | 1018.7 | |
| 20260904021041 | 71 | 0.0 | 0.0 | 0.00 | 0.00 | 0.00 | 72 | 1018.3 | |
| 20260904020013 | 72 | 0.0 | 0.0 | 0.00 | 0.00 | 0.00 | 71 | 1018.3 | |
| 20260904015011 | 72 | 0.0 | 0.0 | 0.00 | 0.00 | 0.00 | 71 | 1018.4 | |
| 20260904014010 | 72 | 0.0 | 0.0 | 0.00 | 0.00 | 0.00 | 70 | 1018.5 | |
| 20260904013006 | 72 | 0.0 | 0.0 | 0.00 | 0.00 | 0.00 | 69 | 1018.3 | |
| 20260904012004 | 72 | 0.0 | 0.0 | 0.00 | 0.00 | 0.00 | 67 | 1018.3 | |
| 20260904011001 | 72 | 0.0 | 0.0 | 0.00 | 0.00 | 0.00 | 68 | 1018.5 | |
| 20260904005958 | 72 | 315 | 0.9 | 1.7 | 0.00 | 0.00 | 0.00 | 68 | 1018.5 |
| 20260904004946 | 73 | 0.0 | 0.0 | 0.00 | 0.00 | 0.00 | 67 | 1018.2 | |
| 20260904003519 | 73 | 0.0 | 0.0 | 0.00 | 0.00 | 0.00 | 66 | 1018.5 | |
| 20260904002425 | 73 | 0.0 | 0.0 | 0.00 | 0.00 | 0.00 | 67 | 1018.6 | |
| 20260904001421 | 72 | 0.0 | 0.0 | 0.00 | 0.00 | 0.00 | 67 | 1018.6 | |
| 20260904000411 | 73 | 0.0 | 0.0 | 0.00 | 0.00 | 0.00 | 67 | 1018.7 | |
| 20260903235425 | 73 | 0.0 | 0.0 | 0.00 | 0.00 | 0.00 | 67 | 1018.5 | |
| 20260903234401 | 73 | 0.0 | 0.0 | 0.00 | 0.00 | 0.00 | 68 | 1018.7 | |
| 20260903233400 | 73 | 315 | 0.0 | 0.9 | 0.00 | 0.00 | 0.00 | 68 | 1018.9 |
| 20260903232357 | 73 | 0.0 | 0.0 | 0.00 | 0.00 | 0.00 | 67 | 1018.6 | |
| 20260903231352 | 74 | 0.0 | 0.0 | 0.00 | 0.00 | 0.00 | 65 | 1018.6 | |
| 20260903230350 | 73 | 0.0 | 0.9 | 0.00 | 0.00 | 0.00 | 66 | 1018.5 | |
| 20260903225347 | 73 | 0.0 | 0.0 | 0.00 | 0.00 | 0.00 | 67 | 1018.6 | |
| 20260903224340 | 73 | 0.0 | 0.0 | 0.00 | 0.00 | 0.00 | 68 | 1018.5 | |
| 20260903223337 | 74 | 315 | 0.9 | 2.6 | 0.00 | 0.00 | 0.00 | 67 | 1018.6 |
| 20260903222335 | 74 | 315 | 0.9 | 1.7 | 0.00 | 0.00 | 0.00 | 67 | 1018.6 |
| 20260903221348 | 73 | 315 | 0.9 | 1.7 | 0.00 | 0.00 | 0.00 | 68 | 1018.7 |
| 20260903220323 | 75 | 0.0 | 0.0 | 0.00 | 0.00 | 0.00 | 65 | 1018.5 | |
| 20260903215313 | 75 | 0.0 | 0.0 | 0.00 | 0.00 | 0.00 | 66 | 1018.6 | |
| 20260903214350 | 75 | 0.0 | 0.0 | 0.00 | 0.00 | 0.00 | 65 | 1018.5 | |
| 20260903213305 | 75 | 0.0 | 0.0 | 0.00 | 0.00 | 0.00 | 67 | 1018.4 | |
| 20260903212306 | 74 | 0.0 | 0.0 | 0.00 | 0.00 | 0.00 | 70 | 1018.3 | |
| 20260903211338 | 74 | 0.0 | 0.0 | 0.00 | 0.00 | 0.00 | 70 | 1018.3 | |
| 20260903205349 | 78 | 0.0 | 0.0 | 0.00 | 0.00 | 0.00 | 61 | 1018.5 | |
| 20260903204343 | 78 | 0.0 | 0.0 | 0.00 | 0.00 | 0.00 | 61 | 1018.4 | |
| 20260903203339 | 78 | 0.0 | 0.0 | 0.00 | 0.00 | 0.00 | 61 | 1018.4 | |
| 20260903202336 | 78 | 0.0 | 0.0 | 0.00 | 0.00 | 0.00 | 61 | 1018.4 | |
| 20260903201333 | 79 | 0.0 | 0.0 | 0.00 | 0.00 | 0.00 | 59 | 1018.1 | |
| 20260903200329 | 79 | 0.0 | 0.0 | 0.00 | 0.00 | 0.00 | 59 | 1018.4 | |
| 20260903195326 | 79 | 0.0 | 0.0 | 0.00 | 0.00 | 0.00 | 58 | 1018.3 | |
| 20260903194322 | 80 | 0.0 | 0.0 | 0.00 | 0.00 | 0.00 | 58 | 1017.9 | |
| 20260903193353 | 80 | 0.0 | 0.0 | 0.00 | 0.00 | 0.00 | 58 | 1018.1 | |
| 20260903192309 | 80 | 0.0 | 0.0 | 0.00 | 0.00 | 0.00 | 58 | 1018.1 | |
| 20260903191258 | 80 | 0.0 | 0.0 | 0.00 | 0.00 | 0.00 | 58 | 1017.9 | |
| 20260903185800 | 81 | 0.0 | 0.0 | 0.00 | 0.00 | 0.00 | 59 | 1017.8 | |
| 20260903184757 | 81 | 0.0 | 0.0 | 0.00 | 0.00 | 0.00 | 58 | 1017.7 | |
| 20260903183753 | 82 | 0.0 | 0.0 | 0.00 | 0.00 | 0.00 | 58 | 1017.6 | |
| 20260903182810 | 83 | 0.0 | 0.0 | 0.00 | 0.00 | 0.00 | 55 | 1017.4 | |
| 20260903181747 | 84 | 0.0 | 0.0 | 0.00 | 0.00 | 0.00 | 54 | 1017.4 |